SCOUT A DEB, 2994

Orbit data source: Space-Track

SCOUT A DEB, 2994 is space debris in LEO originally from a launch on Mon, 25 Sep 1967 UTC launched from the Air Force Western Test Range (AFWTR). Debris objects in space refer to the collection of defunct objects orbiting the Earth. Examples of debris include non-operational satellites, rocket bodies, and fragments generated from explosions, collisions, or faulty payload assembly.

Loading next visibility...
SCOUT A DEB details
Identifier
2994, 1967-092C
Orbit
LEO
Last TLE update1 day ago
Origin
Flag of USUSN NAVAIR (US)
ManufacturerUnknown
MissionSpacecraft
Bus & MotorUnknown
MassUnknown
Launch date (UTC)
1967-09-25 (57 years ago)
Launch vehicleUnknown
Launch site
Air Force Western Test Range (AFWTR)
Object type
Payload
Rocket body
Debris
Shape & HBRUnknown
Radar Cross SectionSmall (<0.1 m²)

Expand to show TLE details & history

TLE from 1 day ago
0 SCOUT A DEB
1 02994U 67092C   24355.33710164  .00000698  00000-0  47686-3 0  9999
2 02994  89.4332  18.5781 0091472 108.5501 252.5640 13.96723971898847
Epoch: 2024-12-20T08:05Z
Definitive object data (Epoch: 2024-12-20T08:05:25.581Z)
Latitude-0.00006°
Longitude167.81745°
Altitude928.702 km
Speed7.377 km/s
True Right ascension01h 14m 18s
True Declination0° 00' 00"
Sunlit
Object was in daylight at TLE epoch
Visualization TLE readout
Latitude-79.67789°
Longitude-9.15906°
Altitude993.496 km
Speed7.324 km/s
Apparent Right ascension23h 19m 01s
Apparent Declination-71° 45' 54"
Sunlit
Object is in daylight
Visualization observer readout
Local Sidereal Time11:51:50
Azimuth175.183° S
Elevation-57.885°
Doppler factor1
Orbital elements
Apogee altitude968.738 km
Perigee altitude835.55 km
Semi-major axis7,280.281 km
Eccentricity0.0091472
Inclination89.4332°
RAAN18.5781°
Arg. of periapsis108.5501°
True anomaly251.56744°
Mean anomaly252.564°
Eccentric anomaly252.06537°
Mean motion3.49398 °/min
BSTAR0.00047686
Orbital period103.03 mins
Loading maneuver chart data...
Loading historical data...
Loading historical data...
Loading historical data...
Loading historical data...
Loading historical data...
Loading historical data...
Loading historical data...

SCOUT A DEB Visibility forecast

Observer location: undefined°, undefined

Span
Click to sort rows by Start time (UTC) header in descending order
Start Az.
Max El. time (UTC)
Max El. Az.
Max El.
End time (UTC)
End Az.
10 mins2024-12-21 13:53:58.412Z6.568° NNE2024-12-21 13:58:58.412Z101.721° ESE43.549°2024-12-21 14:03:58.412Z174.75° S
9 mins2024-12-22 01:28:58.412Z143.151° SSE2024-12-22 01:32:58.412Z79.828° E33.16°2024-12-22 01:37:58.412Z14.106° NNE
7 mins2024-12-22 03:12:58.412Z235.981° WSW2024-12-22 03:15:58.412Z276.798° WNW22.604°2024-12-22 03:19:58.412Z327.614° NNW
|